Location: Newark
(52.1752°N, 10.4140°W)
Time: 04:47:43
(UTC+00:00)

N. Korean satellite - Pass Details

Date: 24 November 2019
Orbit: 455 x 507 km, 97.2° (Epoch: 14 December)

Event Time Altitude Azimuth Distance (km) Brightness Sun altitude
Rises 05:32:37 0° 28° (NNE) 2,614 10.6 -24.5°
Reaches altitude 10° 05:35:28 10° 52° (NE) 1,715 10.0 -24.0°
Maximum altitude 05:37:40 15° 89° (E) 1,416 9.9 -23.7°
Drops below altitude 10° 05:39:50 10° 125° (SE) 1,691 10.1 -23.4°
Sets 05:42:37 0° 150° (SSE) 2,555 10.7 -23.0°
